| time (UTC) | temp F | wind direction | speed MPH | gust MPH | rain 1hr in | rain 24hr in | rain mn in | humidity % | barometer mb |
| 20260509214009 | 54 | 330 | 1.0 | 2.0 | 0.00 | 0.00 | 0.00 | 78 | 1015.2 |
| 20260509213509 | 54 | 326 | 0.0 | 2.0 | 0.00 | 0.00 | 0.00 | 78 | 1015.1 |
| 20260509213009 | 54 | 321 | 2.0 | 3.0 | 0.00 | 0.00 | 0.00 | 79 | 1015.1 |
| 20260509212509 | 54 | 318 | 1.0 | 2.0 | 0.00 | 0.00 | 0.00 | 79 | 1015.1 |
| 20260509212009 | 54 | 317 | 0.0 | 2.0 | 0.00 | 0.00 | 0.00 | 79 | 1015.2 |
| 20260509211508 | 54 | 317 | 0.0 | 1.0 | 0.00 | 0.00 | 0.00 | 79 | 1015.3 |
| 20260509211009 | 54 | 317 | 1.0 | 2.0 | 0.00 | 0.00 | 0.00 | 77 | 1015.2 |
| 20260509210508 | 55 | 317 | 2.0 | 3.0 | 0.00 | 0.00 | 0.00 | 76 | 1015.3 |
| 20260509210009 | 55 | 331 | 0.0 | 2.0 | 0.00 | 0.00 | 0.00 | 75 | 1015.3 |
| 20260509205509 | 56 | 331 | 1.0 | 2.0 | 0.00 | 0.00 | 0.00 | 74 | 1015.3 |
| 20260509205008 | 56 | 331 | 1.0 | 2.0 | 0.00 | 0.00 | 0.00 | 73 | 1015.2 |
| 20260509204509 | 56 | 337 | 1.0 | 2.0 | 0.00 | 0.00 | 0.00 | 73 | 1015.2 |
| 20260509204009 | 57 | 355 | 1.0 | 2.0 | 0.00 | 0.00 | 0.00 | 73 | 1015.3 |
| 20260509203509 | 57 | 355 | 2.0 | 2.0 | 0.00 | 0.00 | 0.00 | 73 | 1015.3 |
| 20260509203009 | 56 | 17 | 1.0 | 2.0 | 0.00 | 0.00 | 0.00 | 74 | 1015.3 |
| 20260509202509 | 56 | 17 | 0.0 | 1.0 | 0.00 | 0.00 | 0.00 | 73 | 1015.3 |
| 20260509201009 | 57 | 25 | 0.0 | 2.0 | 0.00 | 0.00 | 0.00 | 73 | 1015.2 |
| 20260509195510 | 58 | 25 | 0.0 | 1.0 | 0.00 | 0.00 | 0.00 | 72 | 1015.4 |
| 20260509195008 | 58 | 23 | 1.0 | 2.0 | 0.00 | 0.00 | 0.00 | 72 | 1015.4 |
| 20260509194509 | 58 | 23 | 0.0 | 1.0 | 0.00 | 0.00 | 0.00 | 72 | 1015.3 |
| 20260509194009 | 57 | 23 | 0.0 | 0.0 | 0.00 | 0.00 | 0.00 | 75 | 1015.2 |
| 20260509193509 | 56 | 23 | 0.0 | 0.0 | 0.00 | 0.00 | 0.00 | 75 | 1015.1 |
| 20260509193009 | 56 | 23 | 1.0 | 1.0 | 0.00 | 0.00 | 0.00 | 77 | 1015.2 |
| 20260509192508 | 56 | 23 | 0.0 | 0.0 | 0.00 | 0.00 | 0.00 | 77 | 1015.2 |
| 20260509191508 | 56 | 23 | 0.0 | 2.0 | 0.00 | 0.00 | 0.00 | 76 | 1015.2 |
| 20260509191009 | 57 | 23 | 0.0 | 1.0 | 0.00 | 0.00 | 0.00 | 74 | 1015.1 |
| 20260509190008 | 58 | 23 | 1.0 | 2.0 | 0.00 | 0.00 | 0.00 | 72 | 1015.0 |
| 20260509185509 | 59 | 23 | 1.0 | 3.0 | 0.00 | 0.00 | 0.00 | 71 | 1014.9 |
| 20260509185012 | 59 | 23 | 1.0 | 2.0 | 0.00 | 0.00 | 0.00 | 72 | 1014.9 |
| 20260509184509 | 59 | 23 | 0.0 | 2.0 | 0.00 | 0.00 | 0.00 | 71 | 1014.9 |
| 20260509184008 | 59 | 23 | 1.0 | 3.0 | 0.00 | 0.00 | 0.00 | 72 | 1014.9 |
| 20260509183509 | 59 | 53 | 0.0 | 2.0 | 0.00 | 0.00 | 0.00 | 71 | 1014.8 |
| 20260509182508 | 60 | 53 | 1.0 | 3.0 | 0.00 | 0.00 | 0.00 | 70 | 1014.8 |
| 20260509182008 | 60 | 23 | 1.0 | 3.0 | 0.00 | 0.00 | 0.00 | 70 | 1014.8 |
| 20260509181508 | 60 | 31 | 1.0 | 2.0 | 0.00 | 0.00 | 0.00 | 69 | 1014.7 |
| 20260509181010 | 61 | 31 | 1.0 | 3.0 | 0.00 | 0.00 | 0.00 | 69 | 1014.9 |
| 20260509180008 | 62 | 34 | 0.0 | 2.0 | 0.00 | 0.00 | 0.00 | 66 | 1014.8 |
| 20260509175008 | 64 | 102 | 3.0 | 8.0 | 0.00 | 0.00 | 0.00 | 65 | 1014.7 |
| 20260509174509 | 64 | 53 | 3.0 | 7.0 | 0.00 | 0.00 | 0.00 | 64 | 1014.7 |
| 20260509174009 | 64 | 84 | 3.0 | 7.0 | 0.00 | 0.00 | 0.00 | 64 | 1014.7 |
| 20260509173008 | 64 | 48 | 3.0 | 6.0 | 0.00 | 0.00 | 0.00 | 63 | 1014.7 |
| 20260509172009 | 65 | 57 | 3.0 | 6.0 | 0.00 | 0.00 | 0.00 | 63 | 1014.8 |
| 20260509171508 | 65 | 63 | 5.0 | 9.0 | 0.00 | 0.00 | 0.00 | 63 | 1014.9 |
| 20260509171011 | 65 | 65 | 4.0 | 8.0 | 0.00 | 0.00 | 0.00 | 63 | 1014.8 |
| 20260509170508 | 65 | 57 | 5.0 | 7.0 | 0.00 | 0.00 | 0.00 | 63 | 1014.9 |
| 20260509170009 | 65 | 67 | 4.0 | 10.0 | 0.00 | 0.00 | 0.00 | 63 | 1014.9 |
| 20260509165509 | 65 | 102 | 2.0 | 7.0 | 0.00 | 0.00 | 0.00 | 63 | 1014.9 |
| 20260509165009 | 65 | 53 | 4.0 | 8.0 | 0.00 | 0.00 | 0.00 | 61 | 1015.0 |
| 20260509164509 | 65 | 46 | 2.0 | 6.0 | 0.00 | 0.00 | 0.00 | 61 | 1015.0 |
| 20260509164008 | 65 | 99 | 3.0 | 7.0 | 0.00 | 0.00 | 0.00 | 61 | 1015.1 |
| 20260509163508 | 66 | 44 | 4.0 | 9.0 | 0.00 | 0.00 | 0.00 | 60 | 1015.1 |
| 20260509163009 | 66 | 71 | 3.0 | 6.0 | 0.00 | 0.00 | 0.00 | 61 | 1015.2 |
| 20260509162009 | 66 | 57 | 5.0 | 10.0 | 0.00 | 0.00 | 0.00 | 60 | 1015.3 |
| 20260509161508 | 66 | 32 | 5.0 | 7.0 | 0.00 | 0.00 | 0.00 | 62 | 1015.3 |
| 20260509161009 | 66 | 32 | 5.0 | 9.0 | 0.00 | 0.00 | 0.00 | 61 | 1015.3 |
| 20260509160008 | 66 | 100 | 3.0 | 6.0 | 0.00 | 0.00 | 0.00 | 61 | 1015.3 |
| 20260509155509 | 66 | 25 | 3.0 | 6.0 | 0.00 | 0.00 | 0.00 | 61 | 1015.3 |
| 20260509155009 | 66 | 74 | 5.0 | 10.0 | 0.00 | 0.00 | 0.00 | 60 | 1015.4 |
| 20260509154512 | 66 | 59 | 2.0 | 3.0 | 0.00 | 0.00 | 0.00 | 62 | 1015.5 |
| 20260509154009 | 66 | 73 | 2.0 | 5.0 | 0.00 | 0.00 | 0.00 | 61 | 1015.6 |
| 20260509153009 | 67 | 63 | 6.0 | 10.0 | 0.00 | 0.00 | 0.00 | 59 | 1015.6 |
| 20260509152509 | 66 | 69 | 3.0 | 8.0 | 0.00 | 0.00 | 0.00 | 60 | 1015.5 |
| 20260509152009 | 67 | 151 | 3.0 | 9.0 | 0.00 | 0.00 | 0.00 | 58 | 1015.6 |
| 20260509151009 | 66 | 94 | 2.0 | 6.0 | 0.00 | 0.00 | 0.00 | 60 | 1015.5 |
| 20260509150508 | 67 | 63 | 3.0 | 7.0 | 0.00 | 0.00 | 0.00 | 61 | 1015.6 |
| 20260509150008 | 67 | 56 | 4.0 | 7.0 | 0.00 | 0.00 | 0.00 | 60 | 1015.7 |
| 20260509145509 | 67 | 74 | 5.0 | 10.0 | 0.00 | 0.00 | 0.00 | 60 | 1015.7 |
| 20260509145009 | 68 | 69 | 6.0 | 9.0 | 0.00 | 0.00 | 0.00 | 59 | 1015.7 |
| 20260509144508 | 67 | 77 | 4.0 | 9.0 | 0.00 | 0.00 | 0.00 | 60 | 1015.8 |
| 20260509144009 | 67 | 58 | 3.0 | 10.0 | 0.00 | 0.00 | 0.00 | 59 | 1015.7 |
| 20260509143508 | 67 | 79 | 4.0 | 10.0 | 0.00 | 0.00 | 0.00 | 59 | 1015.9 |
| 20260509143008 | 67 | 56 | 7.0 | 13.0 | 0.00 | 0.00 | 0.00 | 59 | 1015.9 |
| 20260509142509 | 67 | 104 | 3.0 | 7.0 | 0.00 | 0.00 | 0.00 | 59 | 1015.9 |
| 20260509141508 | 67 | 50 | 5.0 | 10.0 | 0.00 | 0.00 | 0.00 | 60 | 1016.0 |
| 20260509141008 | 67 | 82 | 3.0 | 8.0 | 0.00 | 0.00 | 0.00 | 61 | 1016.0 |
| 20260509140509 | 68 | 46 | 4.0 | 10.0 | 0.00 | 0.00 | 0.00 | 59 | 1016.0 |
| 20260509140008 | 68 | 72 | 7.0 | 10.0 | 0.00 | 0.00 | 0.00 | 59 | 1016.1 |
| 20260509135509 | 68 | 99 | 3.0 | 8.0 | 0.00 | 0.00 | 0.00 | 58 | 1016.1 |
| 20260509135008 | 68 | 23 | 3.0 | 7.0 | 0.00 | 0.00 | 0.00 | 61 | 1016.1 |
| 20260509134508 | 67 | 119 | 2.0 | 7.0 | 0.00 | 0.00 | 0.00 | 57 | 1016.3 |
| 20260509134008 | 67 | 109 | 4.0 | 8.0 | 0.00 | 0.00 | 0.00 | 61 | 1016.3 |
| 20260509133508 | 67 | 145 | 3.0 | 8.0 | 0.00 | 0.00 | 0.00 | 59 | 1016.4 |
| 20260509133009 | 67 | 151 | 4.0 | 10.0 | 0.00 | 0.00 | 0.00 | 59 | 1016.4 |
| 20260509132509 | 67 | 113 | 4.0 | 9.0 | 0.00 | 0.00 | 0.00 | 61 | 1016.4 |
| 20260509132008 | 67 | 74 | 4.0 | 8.0 | 0.00 | 0.00 | 0.00 | 59 | 1016.5 |
| 20260509131509 | 67 | 115 | 6.0 | 12.0 | 0.00 | 0.00 | 0.00 | 62 | 1016.6 |
| 20260509131009 | 67 | 86 | 4.0 | 9.0 | 0.00 | 0.00 | 0.00 | 60 | 1016.7 |
| 20260509130509 | 67 | 112 | 6.0 | 12.0 | 0.00 | 0.00 | 0.00 | 62 | 1016.8 |
| 20260509130009 | 67 | 32 | 3.0 | 6.0 | 0.00 | 0.00 | 0.00 | 63 | 1016.9 |
| 20260509125509 | 66 | 159 | 2.0 | 3.0 | 0.00 | 0.00 | 0.00 | 60 | 1017.0 |
| 20260509124507 | 66 | 44 | 4.0 | 10.0 | 0.00 | 0.00 | 0.00 | 61 | 1017.1 |
| 20260509124005 | 65 | 144 | 1.0 | 8.0 | 0.00 | 0.00 | 0.00 | 61 | 1017.2 |
| 20260509123505 | 64 | 133 | 3.0 | 8.0 | 0.00 | 0.00 | 0.00 | 63 | 1017.4 |
| 20260509123005 | 64 | 124 | 3.0 | 6.0 | 0.00 | 0.00 | 0.00 | 64 | 1017.4 |
| 20260509122504 | 64 | 170 | 3.0 | 10.0 | 0.00 | 0.00 | 0.00 | 63 | 1017.4 |
| 20260509121504 | 66 | 130 | 2.0 | 8.0 | 0.00 | 0.00 | 0.00 | 61 | 1017.5 |
| 20260509121005 | 65 | 152 | 2.0 | 8.0 | 0.00 | 0.00 | 0.00 | 60 | 1017.6 |
| 20260509120005 | 65 | 98 | 2.0 | 7.0 | 0.00 | 0.00 | 0.00 | 62 | 1017.7 |
| 20260509115505 | 65 | 204 | 3.0 | 7.0 | 0.00 | 0.00 | 0.00 | 62 | 1017.7 |
| 20260509115004 | 65 | 141 | 5.0 | 12.0 | 0.00 | 0.00 | 0.00 | 64 | 1017.7 |
| 20260509114505 | 65 | 75 | 2.0 | 12.0 | 0.00 | 0.00 | 0.00 | 63 | 1017.6 |
| 20260509114005 | 65 | 148 | 3.0 | 7.0 | 0.00 | 0.00 | 0.00 | 65 | 1017.7 |
| 20260509113504 | 65 | 157 | 4.0 | 10.0 | 0.00 | 0.00 | 0.00 | 62 | 1017.7 |
| 20260509113005 | 64 | 87 | 6.0 | 12.0 | 0.00 | 0.00 | 0.00 | 66 | 1017.8 |
| 20260509112504 | 64 | 109 | 5.0 | 12.0 | 0.00 | 0.00 | 0.00 | 64 | 1017.8 |
| 20260509112004 | 64 | 144 | 5.0 | 8.0 | 0.00 | 0.00 | 0.00 | 64 | 1017.9 |
| 20260509111504 | 64 | 33 | 5.0 | 12.0 | 0.00 | 0.00 | 0.00 | 65 | 1018.0 |
| 20260509111005 | 64 | 32 | 6.0 | 12.0 | 0.00 | 0.00 | 0.00 | 66 | 1018.0 |
| 20260509110504 | 63 | 168 | 2.0 | 7.0 | 0.00 | 0.00 | 0.00 | 66 | 1018.0 |
| 20260509110006 | 63 | 67 | 3.0 | 8.0 | 0.00 | 0.00 | 0.00 | 66 | 1018.1 |
| 20260509105504 | 63 | 110 | 3.0 | 9.0 | 0.00 | 0.00 | 0.00 | 66 | 1018.1 |
| 20260509104504 | 63 | 91 | 2.0 | 8.0 | 0.00 | 0.00 | 0.00 | 67 | 1018.3 |
| 20260509104004 | 63 | 51 | 5.0 | 10.0 | 0.00 | 0.00 | 0.00 | 68 | 1018.3 |
| 20260509103504 | 62 | 50 | 3.0 | 8.0 | 0.00 | 0.00 | 0.00 | 67 | 1018.4 |
| 20260509103004 | 63 | 33 | 6.0 | 10.0 | 0.00 | 0.00 | 0.00 | 67 | 1018.4 |
| 20260509102505 | 62 | 31 | 6.0 | 12.0 | 0.00 | 0.00 | 0.00 | 68 | 1018.4 |
| 20260509102004 | 62 | 66 | 3.0 | 8.0 | 0.00 | 0.00 | 0.00 | 68 | 1018.4 |
| 20260509101004 | 61 | 68 | 6.0 | 12.0 | 0.00 | 0.00 | 0.00 | 68 | 1018.5 |
| 20260509100005 | 62 | 69 | 5.0 | 9.0 | 0.00 | 0.00 | 0.00 | 68 | 1018.8 |
| 20260509095504 | 61 | 57 | 5.0 | 9.0 | 0.00 | 0.00 | 0.00 | 68 | 1018.7 |
| 20260509095005 | 60 | 48 | 5.0 | 12.0 | 0.00 | 0.00 | 0.00 | 71 | 1018.7 |
| 20260509094505 | 60 | 66 | 3.0 | 10.0 | 0.00 | 0.00 | 0.00 | 71 | 1018.7 |
| 20260509094005 | 60 | 69 | 5.0 | 10.0 | 0.00 | 0.00 | 0.00 | 68 | 1018.7 |
| 20260509093504 | 60 | 64 | 5.0 | 9.0 | 0.00 | 0.00 | 0.00 | 71 | 1018.7 |
| 20260509093004 | 60 | 117 | 5.0 | 10.0 | 0.00 | 0.00 | 0.00 | 69 | 1018.7 |
| 20260509092504 | 59 | 161 | 5.0 | 9.0 | 0.00 | 0.00 | 0.00 | 69 | 1018.6 |
| 20260509092004 | 60 | 59 | 6.0 | 10.0 | 0.00 | 0.00 | 0.00 | 71 | 1018.7 |
| 20260509091504 | 59 | 119 | 4.0 | 8.0 | 0.00 | 0.00 | 0.00 | 73 | 1018.8 |
| 20260509090005 | 58 | 54 | 2.0 | 6.0 | 0.00 | 0.00 | 0.00 | 72 | 1018.9 |
| 20260509085505 | 58 | 49 | 4.0 | 7.0 | 0.00 | 0.00 | 0.00 | 74 | 1018.9 |
| 20260509084504 | 57 | 52 | 2.0 | 7.0 | 0.00 | 0.00 | 0.00 | 75 | 1018.8 |
| 20260509084005 | 57 | 82 | 4.0 | 7.0 | 0.00 | 0.00 | 0.00 | 76 | 1018.8 |
| 20260509083504 | 56 | 129 | 2.0 | 7.0 | 0.00 | 0.00 | 0.00 | 75 | 1018.8 |
| 20260509082505 | 54 | 97 | 4.0 | 7.0 | 0.00 | 0.00 | 0.00 | 77 | 1018.9 |
| 20260509082004 | 55 | 108 | 3.0 | 8.0 | 0.00 | 0.00 | 0.00 | 78 | 1018.9 |
| 20260509081505 | 54 | 163 | 3.0 | 7.0 | 0.00 | 0.00 | 0.00 | 77 | 1018.9 |
| 20260509081005 | 53 | 127 | 3.0 | 6.0 | 0.00 | 0.00 | 0.00 | 79 | 1018.9 |
| 20260509080006 | 52 | 68 | 2.0 | 6.0 | 0.00 | 0.00 | 0.00 | 80 | 1018.9 |
| 20260509075504 | 53 | 67 | 3.0 | 5.0 | 0.00 | 0.00 | 0.00 | 80 | 1018.9 |
| 20260509075004 | 52 | 72 | 2.0 | 5.0 | 0.00 | 0.00 | 0.00 | 80 | 1018.9 |
| 20260509074504 | 52 | 94 | 3.0 | 7.0 | 0.00 | 0.00 | 0.00 | 80 | 1019.0 |
| 20260509074004 | 52 | 149 | 3.0 | 6.0 | 0.00 | 0.00 | 0.00 | 80 | 1019.0 |
| 20260509073505 | 52 | 75 | 2.0 | 6.0 | 0.00 | 0.00 | 0.00 | 81 | 1019.1 |
| 20260509073004 | 52 | 149 | 2.0 | 6.0 | 0.00 | 0.00 | 0.00 | 80 | 1019.1 |
| 20260509072504 | 52 | 109 | 5.0 | 9.0 | 0.00 | 0.00 | 0.00 | 80 | 1019.2 |
| 20260509072005 | 51 | 148 | 3.0 | 8.0 | 0.00 | 0.00 | 0.00 | 82 | 1019.3 |
| 20260509071505 | 51 | 100 | 3.0 | 6.0 | 0.00 | 0.00 | 0.00 | 82 | 1019.3 |
| 20260509070505 | 50 | 89 | 3.0 | 8.0 | 0.00 | 0.00 | 0.00 | 82 | 1019.3 |
| 20260509070005 | 50 | 108 | 2.0 | 8.0 | 0.00 | 0.00 | 0.00 | 82 | 1019.3 |
| 20260509065504 | 51 | 110 | 2.0 | 8.0 | 0.00 | 0.00 | 0.00 | 82 | 1019.2 |
| 20260509065004 | 50 | 68 | 2.0 | 6.0 | 0.00 | 0.00 | 0.00 | 82 | 1019.2 |
| 20260509064505 | 50 | 45 | 3.0 | 6.0 | 0.00 | 0.00 | 0.00 | 82 | 1019.2 |
| 20260509064004 | 49 | 74 | 3.0 | 7.0 | 0.00 | 0.00 | 0.00 | 83 | 1019.2 |
| 20260509063004 | 49 | 46 | 3.0 | 6.0 | 0.00 | 0.00 | 0.00 | 84 | 1019.3 |
| 20260509062004 | 49 | 69 | 3.0 | 5.0 | 0.00 | 0.00 | 0.00 | 84 | 1019.3 |
| 20260509061504 | 48 | 61 | 3.0 | 5.0 | 0.00 | 0.00 | 0.00 | 85 | 1019.2 |
| 20260509060505 | 47 | 76 | 2.0 | 6.0 | 0.00 | 0.00 | 0.00 | 86 | 1019.1 |
| 20260509060006 | 47 | 84 | 2.0 | 3.0 | 0.00 | 0.00 | 0.00 | 86 | 1019.2 |
| 20260509054504 | 46 | 91 | 1.0 | 2.0 | 0.00 | 0.00 | 0.00 | 87 | 1019.1 |
| 20260509054004 | 46 | 77 | 1.0 | 2.0 | 0.00 | 0.00 | 0.00 | 87 | 1019.1 |
| 20260509053504 | 45 | 72 | 1.0 | 3.0 | 0.00 | 0.00 | 0.00 | 88 | 1019.1 |
| 20260509053004 | 45 | 75 | 2.0 | 3.0 | 0.00 | 0.00 | 0.00 | 88 | 1019.2 |
| 20260509052504 | 45 | 83 | 1.0 | 3.0 | 0.00 | 0.00 | 0.00 | 88 | 1019.1 |
| 20260509052005 | 45 | 87 | 1.0 | 3.0 | 0.00 | 0.00 | 0.00 | 88 | 1019.2 |
| 20260509051504 | 45 | 72 | 1.0 | 3.0 | 0.00 | 0.00 | 0.00 | 88 | 1019.1 |
| 20260509051004 | 45 | 70 | 3.0 | 3.0 | 0.00 | 0.00 | 0.00 | 88 | 1019.0 |
| 20260509050504 | 45 | 88 | 1.0 | 3.0 | 0.00 | 0.00 | 0.00 | 88 | 1019.1 |
| 20260509050005 | 45 | 55 | 1.0 | 3.0 | 0.00 | 0.00 | 0.00 | 88 | 1019.0 |
| 20260509045504 | 45 | 96 | 0.0 | 3.0 | 0.00 | 0.00 | 0.00 | 89 | 1019.0 |
| 20260509045004 | 44 | 62 | 1.0 | 3.0 | 0.00 | 0.00 | 0.00 | 89 | 1018.9 |
| 20260509044505 | 44 | 89 | 1.0 | 3.0 | 0.00 | 0.00 | 0.00 | 90 | 1018.9 |
| 20260509043504 | 43 | 110 | 1.0 | 3.0 | 0.00 | 0.00 | 0.00 | 89 | 1018.9 |
| 20260509042004 | 43 | 58 | 1.0 | 2.0 | 0.00 | 0.00 | 0.00 | 89 | 1018.8 |
| 20260509041504 | 43 | 58 | 2.0 | 3.0 | 0.00 | 0.00 | 0.00 | 89 | 1018.8 |
| 20260509041004 | 43 | 40 | 1.0 | 2.0 | 0.00 | 0.00 | 0.00 | 89 | 1018.9 |
| 20260509040504 | 43 | 39 | 1.0 | 2.0 | 0.00 | 0.00 | 0.00 | 89 | 1018.8 |
| 20260509040005 | 43 | 39 | 1.0 | 3.0 | 0.00 | 0.00 | 0.00 | 89 | 1018.8 |
| 20260509035504 | 43 | 55 | 1.0 | 2.0 | 0.00 | 0.00 | 0.00 | 89 | 1018.7 |
| 20260509035004 | 43 | 67 | 1.0 | 2.0 | 0.00 | 0.00 | 0.00 | 89 | 1018.7 |
| 20260509034504 | 43 | 69 | 1.0 | 2.0 | 0.00 | 0.00 | 0.00 | 89 | 1018.7 |
| 20260509034004 | 43 | 69 | 1.0 | 3.0 | 0.00 | 0.00 | 0.00 | 88 | 1018.7 |
| 20260509033505 | 44 | 36 | 2.0 | 3.0 | 0.00 | 0.00 | 0.00 | 88 | 1018.6 |
| 20260509033004 | 44 | 35 | 1.0 | 3.0 | 0.00 | 0.00 | 0.00 | 89 | 1018.7 |
| 20260509032504 | 44 | 36 | 1.0 | 3.0 | 0.00 | 0.00 | 0.00 | 89 | 1018.7 |
| 20260509032004 | 44 | 54 | 1.0 | 3.0 | 0.00 | 0.00 | 0.00 | 89 | 1018.7 |
| 20260509031504 | 44 | 72 | 2.0 | 3.0 | 0.00 | 0.00 | 0.00 | 89 | 1018.8 |
| 20260509031004 | 44 | 65 | 0.0 | 2.0 | 0.00 | 0.00 | 0.00 | 88 | 1018.8 |
| 20260509030504 | 44 | 65 | 1.0 | 2.0 | 0.00 | 0.00 | 0.00 | 88 | 1018.8 |
| 20260509030006 | 44 | 65 | 0.0 | 2.0 | 0.00 | 0.00 | 0.00 | 88 | 1018.8 |
| 20260509025004 | 44 | 70 | 1.0 | 3.0 | 0.00 | 0.00 | 0.00 | 88 | 1018.8 |
| 20260509024504 | 44 | 59 | 2.0 | 3.0 | 0.00 | 0.00 | 0.00 | 87 | 1018.8 |
| 20260509024004 | 45 | 67 | 1.0 | 3.0 | 0.00 | 0.00 | 0.00 | 87 | 1018.8 |
| 20260509023504 | 45 | 63 | 1.0 | 2.0 | 0.00 | 0.00 | 0.00 | 87 | 1018.9 |
| 20260509023004 | 45 | 63 | 2.0 | 3.0 | 0.00 | 0.00 | 0.00 | 87 | 1018.8 |
| 20260509022505 | 45 | 69 | 2.0 | 8.0 | 0.00 | 0.00 | 0.00 | 87 | 1018.7 |
| 20260509022004 | 45 | 76 | 0.0 | 3.0 | 0.00 | 0.00 | 0.00 | 87 | 1018.9 |
| 20260509021504 | 45 | 64 | 2.0 | 5.0 | 0.00 | 0.00 | 0.00 | 87 | 1018.7 |
| 20260509021004 | 45 | 43 | 2.0 | 5.0 | 0.00 | 0.00 | 0.00 | 87 | 1018.8 |
| 20260509020505 | 45 | 24 | 2.0 | 3.0 | 0.00 | 0.00 | 0.00 | 87 | 1018.8 |
| 20260509020005 | 45 | 78 | 1.0 | 3.0 | 0.00 | 0.00 | 0.00 | 86 | 1018.8 |
| 20260509015004 | 46 | 70 | 2.0 | 6.0 | 0.00 | 0.00 | 0.00 | 86 | 1018.6 |
| 20260509014504 | 46 | 45 | 3.0 | 8.0 | 0.00 | 0.00 | 0.00 | 86 | 1018.6 |
| 20260509013504 | 46 | 46 | 2.0 | 3.0 | 0.00 | 0.00 | 0.00 | 86 | 1018.7 |
| 20260509013004 | 46 | 59 | 2.0 | 3.0 | 0.00 | 0.00 | 0.00 | 86 | 1018.7 |
| 20260509012504 | 47 | 74 | 2.0 | 5.0 | 0.00 | 0.00 | 0.00 | 86 | 1018.7 |
| 20260509012004 | 47 | 69 | 1.0 | 2.0 | 0.00 | 0.00 | 0.00 | 85 | 1018.8 |
| 20260509011504 | 47 | 67 | 1.0 | 3.0 | 0.00 | 0.00 | 0.00 | 85 | 1018.8 |
| 20260509010505 | 47 | 71 | 1.0 | 3.0 | 0.00 | 0.00 | 0.00 | 85 | 1018.8 |
| 20260509010005 | 47 | 64 | 2.0 | 3.0 | 0.00 | 0.00 | 0.00 | 85 | 1018.8 |
| 20260509005004 | 47 | 111 | 2.0 | 3.0 | 0.00 | 0.00 | 0.00 | 85 | 1018.8 |
| 20260509004504 | 47 | 80 | 2.0 | 3.0 | 0.00 | 0.00 | 0.00 | 84 | 1018.8 |
| 20260509004004 | 48 | 78 | 4.0 | 8.0 | 0.00 | 0.00 | 0.00 | 84 | 1018.7 |
| 20260509003504 | 48 | 76 | 5.0 | 9.0 | 0.00 | 0.00 | 0.00 | 85 | 1018.8 |
| 20260509003004 | 48 | 85 | 1.0 | 2.0 | 0.00 | 0.00 | 0.00 | 84 | 1018.8 |
| 20260509002504 | 48 | 85 | 1.0 | 2.0 | 0.00 | 0.00 | 0.00 | 84 | 1018.8 |
| 20260509002004 | 48 | 86 | 1.0 | 2.0 | 0.00 | 0.00 | 0.00 | 84 | 1018.8 |
| 20260509001004 | 48 | 13 | 1.0 | 3.0 | 0.00 | 0.00 | 0.00 | 84 | 1018.9 |
| 20260509000504 | 48 | 21 | 2.0 | 3.0 | 0.00 | 0.00 | 0.00 | 84 | 1018.9 |
| 20260509000005 | 48 | 82 | 2.0 | 6.0 | 0.00 | 0.00 | 0.00 | 84 | 1018.9 |
| 20260508235504 | 48 | 123 | 2.0 | 3.0 | 0.00 | 0.00 | 0.00 | 84 | 1018.8 |
| 20260508235004 | 48 | 75 | 1.0 | 3.0 | 0.00 | 0.00 | 0.00 | 84 | 1018.9 |
| 20260508234004 | 48 | 17 | 1.0 | 3.0 | 0.00 | 0.00 | 0.00 | 84 | 1018.9 |
| 20260508233504 | 48 | 17 | 2.0 | 3.0 | 0.00 | 0.00 | 0.00 | 83 | 1018.9 |
| 20260508233004 | 48 | 24 | 0.0 | 3.0 | 0.00 | 0.00 | 0.00 | 83 | 1019.0 |
| 20260508232504 | 48 | 48 | 2.0 | 5.0 | 0.00 | 0.00 | 0.00 | 83 | 1018.9 |
| 20260508232004 | 48 | 59 | 0.0 | 2.0 | 0.00 | 0.00 | 0.00 | 83 | 1018.9 |
| 20260508231504 | 48 | 63 | 1.0 | 6.0 | 0.00 | 0.00 | 0.00 | 83 | 1019.0 |
| 20260508231005 | 48 | 53 | 1.0 | 3.0 | 0.00 | 0.00 | 0.00 | 83 | 1019.0 |
| 20260508230504 | 48 | 111 | 0.0 | 3.0 | 0.00 | 0.00 | 0.00 | 82 | 1019.1 |
| 20260508230005 | 48 | 50 | 0.0 | 2.0 | 0.00 | 0.00 | 0.00 | 82 | 1019.0 |
| 20260508225504 | 48 | 74 | 1.0 | 3.0 | 0.00 | 0.00 | 0.00 | 81 | 1019.0 |
| 20260508225004 | 48 | 21 | 2.0 | 3.0 | 0.00 | 0.00 | 0.00 | 81 | 1019.1 |
| 20260508224504 | 49 | 41 | 2.0 | 3.0 | 0.00 | 0.00 | 0.00 | 81 | 1019.1 |
| 20260508224004 | 49 | 64 | 0.0 | 3.0 | 0.00 | 0.00 | 0.00 | 81 | 1019.1 |
| 20260508223504 | 48 | 61 | 2.0 | 3.0 | 0.00 | 0.00 | 0.00 | 81 | 1019.1 |
| 20260508223004 | 48 | 44 | 1.0 | 3.0 | 0.00 | 0.00 | 0.00 | 81 | 1019.0 |
| 20260508222504 | 49 | 39 | 0.0 | 2.0 | 0.00 | 0.00 | 0.00 | 81 | 1019.0 |
| 20260508222005 | 49 | 38 | 0.0 | 3.0 | 0.00 | 0.00 | 0.00 | 81 | 1019.0 |
| 20260508221004 | 49 | 355 | 0.0 | 3.0 | 0.00 | 0.00 | 0.00 | 81 | 1019.0 |
| 20260508220505 | 49 | 26 | 1.0 | 3.0 | 0.00 | 0.00 | 0.00 | 81 | 1018.9 |
| 20260508220008 | 49 | 17 | 0.0 | 0.0 | 0.00 | 0.00 | 0.00 | 80 | 1018.8 |
| 20260508215504 | 48 | 319 | 0.0 | 0.0 | 0.00 | 0.00 | 0.00 | 83 | 1018.9 |